Tracking 34305 objects as of 7-Jun-2026
HD Live streaming from Space Station
objects crossing your sky now

PERSEUS M2

Track PERSEUS M2 now!
10-day predictions
PERSEUS M2 is classified as:


NORAD ID: 40037
Int'l Code: 2014-033AD
Perigee: 580.1 km
Apogee: 595.9 km
Inclination: 98.0 °
Period: 96.3 minutes
Semi major axis: 6959 km
RCS: Unknown
Launch date: June 19, 2014
Source: Commonwealth of Independent States (former USSR) (CIS)
Launch site: Orenburg, Russia (OREN)

Uplink (MHz):
Downlink (MHz): 400.190/400.221*
Beacon (MHz):
Mode: 9600bps GFSK
Call sign: CQ
Status:

Your satellite tracking list
Your tracking list is empty




NASA's NSSDC Master Catalog

Two Line Element Set (TLE):
1 40037U 14033AD  26157.89302991  .00002193  00000-0  20339-3 0  9992
2 40037  97.9978 108.2247 0011385 343.1209  16.9631 14.95485601649243
Source of the keplerian elements: AFSPC